time_stamp(utc),avg(mph),gust(mph),direction(deg),12m_air_temp(f),sonic_u(cm/s),sonic_v(cm/s),sonic_w(cm/s),pressure,2m_air_temp(f),pyranometer(W/m^2)
"2016-09-10 00:00:49+00",8.0,9.0,,79.3,-241,-279,-63,1013.17,79.4,0
"2016-09-10 00:05:49+00",8.0,9.0,,79,-236,-302,-55,1013.31,79,0
"2016-09-10 00:10:49+00",8.0,9.0,,79,-250,-292,-68,1013.39,78.8,0
"2016-09-10 00:15:49+00",8.4,10.4,,79,-239,-288,-75,1013.42,78.8,0
"2016-09-10 00:20:49+00",8.5,10.5,,78.8,-289,-296,-81,1013.5,78.6,0
"2016-09-10 00:25:49+00",7.0,9.0,,78.7,-245,-255,-49,1013.46,78.5,0
"2016-09-10 00:30:49+00",7.1,8.1,,78.6,-269,-250,-54,1013.55,78.4,0
"2016-09-10 00:35:49+00",8.2,9.2,,78.6,-302,-272,-73,1013.51,78.3,0
"2016-09-10 00:40:49+00",7.0,8.0,,78.6,-294,-237,-61,1013.7,78.3,0
"2016-09-10 00:45:49+00",7.4,8.4,,78.6,-137,-153,-21,1013.71,78.3,0
"2016-09-10 00:50:49+00",7.0,7.0,,78.5,-210,-164,-45,1013.71,78.2,0
"2016-09-10 00:55:49+00",7.7,8.7,,78.5,-99,-103,-1,1013.7,78.1,0
"2016-09-10 01:00:49+00",7.3,8.3,,78.5,-131,-120,11,1013.69,78,0
"2016-09-10 01:05:49+00",6.1,7.1,,78.4,-9,-4,-34,1013.7,78,0
"2016-09-10 01:10:49+00",7.7,8.7,,78.4,-5,2,-27,1013.69,78,0
"2016-09-10 01:15:49+00",6.1,7.1,,78.4,-15,-16,-29,1013.76,77.9,0
"2016-09-10 01:20:49+00",7.3,8.3,,78.4,-13,-16,-37,1013.82,77.9,0
"2016-09-10 01:25:49+00",6.9,7.9,,78.3,-19,-28,-30,1013.86,77.8,0
"2016-09-10 01:30:49+00",7.4,8.4,,78.3,-64,-89,16,1013.85,77.8,0
"2016-09-10 01:35:49+00",7.0,8.0,,78.3,-24,-25,-35,1013.85,77.8,0
"2016-09-10 01:40:49+00",6.8,7.8,,78.3,-7,-19,-36,1013.95,77.8,0
"2016-09-10 01:45:49+00",6.8,7.8,,78.3,-237,-209,11,1014.03,77.8,0
"2016-09-10 01:50:49+00",8.3,10.3,,78.4,-279,-226,42,1014.03,77.8,0
"2016-09-10 01:55:49+00",7.4,8.4,,78.4,-243,-220,36,1014.09,77.9,0
"2016-09-10 02:00:49+00",6.9,8.9,,78.4,-227,-253,-20,1014.11,77.9,0
"2016-09-10 02:05:49+00",7.2,8.2,,78.5,-243,-290,-37,1014.1,77.9,0
"2016-09-10 02:10:49+00",7.9,8.9,,78.7,-236,-288,-35,1014.15,77.9,0
"2016-09-10 02:15:49+00",8.2,9.2,,78.7,-143,-202,-37,1014.07,77.9,0
"2016-09-10 02:20:49+00",8.2,9.2,,78.8,-46,-107,-58,1014.09,78,0
"2016-09-10 02:25:49+00",8.7,10.7,,78.8,-355,-227,-66,1014.22,78,0
"2016-09-10 02:30:49+00",8.9,9.9,,78.7,-359,-240,-74,1014.27,78,0
"2016-09-10 02:35:49+00",8.9,9.9,,78.6,-365,-270,-63,1014.29,78,0
"2016-09-10 02:40:49+00",7.7,8.7,,78.6,-320,-218,-54,1014.33,78,0
"2016-09-10 02:45:49+00",7.4,8.4,,78.6,-314,-195,-60,1014.44,78,0
"2016-09-10 02:50:49+00",7.6,9.6,,78.7,-343,-220,-62,1014.52,78.1,0
"2016-09-10 02:55:49+00",6.8,7.8,,78.8,-281,-240,-51,1014.57,78,0
"2016-09-10 03:00:49+00",8.0,10.0,,78.6,-100,-308,-67,1014.63,78,0
"2016-09-10 03:05:49+00",9.0,10.0,,78.3,-215,-318,-72,1014.58,77.8,0
"2016-09-10 03:10:49+00",8.3,9.3,,78.5,-365,-227,-77,1014.56,77.8,0
"2016-09-10 03:15:49+00",9.6,10.6,,78.5,-408,-214,-85,1014.55,77.8,0
"2016-09-10 03:20:49+00",10.0,12.0,,78.9,-415,-214,-78,1014.46,77.9,0
"2016-09-10 03:25:49+00",9.0,10.0,,79,-377,-209,-71,1014.52,78,0
"2016-09-10 03:30:49+00",8.0,9.0,,79,-355,-226,-74,1014.56,78.1,0
"2016-09-10 03:35:49+00",7.7,8.7,,79,-316,-215,-52,1014.58,78.1,0
"2016-09-10 03:40:49+00",7.6,8.6,,79,-329,-185,-64,1014.57,78.1,0
"2016-09-10 03:45:49+00",8.0,9.0,,78.9,-299,-160,-51,1014.62,78.1,0
"2016-09-10 03:50:49+00",6.5,7.5,,78.9,-287,-191,-58,1014.6,78.1,0
"2016-09-10 03:55:49+00",6.8,7.8,,78.6,-66,-264,-53,1014.76,78,0
"2016-09-10 04:00:49+00",7.4,8.4,,78.3,-124,-279,-50,1014.74,77.8,0
"2016-09-10 04:05:49+00",6.9,8.9,,78.3,-132,-244,-43,1014.84,77.7,0
"2016-09-10 04:10:49+00",9.0,10.0,,78.4,-203,-326,-54,1014.82,77.7,0
"2016-09-10 04:15:49+00",6.8,7.8,,77.9,-158,-234,-51,1014.8,77.5,0
"2016-09-10 04:20:49+00",6.5,7.5,,78.1,-280,-158,-43,1014.75,77.3,0
"2016-09-10 04:25:49+00",8.8,9.8,,78.5,-401,-94,-74,1014.66,77.4,0
"2016-09-10 04:30:49+00",8.9,9.9,,79,-391,-110,-69,1014.63,77.4,0
"2016-09-10 04:35:49+00",8.1,9.1,,79.1,-351,-126,-53,1014.6,77.5,0
"2016-09-10 04:40:49+00",8.0,9.0,,79.1,-347,-201,-61,1014.6,77.6,0
"2016-09-10 04:45:49+00",6.4,8.4,,79.1,-298,-188,-57,1014.56,77.7,0
"2016-09-10 04:50:49+00",6.1,7.1,,78.8,-257,-221,-56,1014.49,77.7,0
"2016-09-10 04:55:49+00",6.3,7.3,,78.6,-227,-228,-47,1014.46,77.7,0
"2016-09-10 05:00:49+00",8.2,9.2,,78.5,-196,-287,-62,1014.47,77.6,0
"2016-09-10 05:05:49+00",8.3,10.3,,78.2,-130,-316,-63,1014.64,77.5,0
"2016-09-10 05:10:49+00",7.7,9.7,,78.1,-232,-273,-49,1014.51,77.3,0
"2016-09-10 05:15:49+00",7.1,8.1,,78,-294,-199,-60,1014.56,77.3,0
"2016-09-10 05:20:49+00",8.2,9.2,,78.1,-333,-181,-76,1014.57,77.3,0
"2016-09-10 05:25:49+00",7.7,9.7,,78.2,-319,-165,-62,1014.51,77.3,0
"2016-09-10 05:30:49+00",7.6,8.6,,78.3,-328,-148,-63,1014.56,77.2,0
"2016-09-10 05:35:49+00",6.8,7.8,,78.4,-311,-109,-47,1014.52,77.2,0
"2016-09-10 05:40:49+00",5.0,6.0,,78.4,-229,-67,-30,1014.65,77.2,0
"2016-09-10 05:45:49+00",4.7,4.7,,78.3,-177,-87,-35,1014.66,77.2,0
"2016-09-10 05:50:49+00",4.4,4.4,,78.2,-188,-130,-40,1014.58,77.1,0
"2016-09-10 05:55:49+00",6.6,6.6,,78.1,-250,-152,-40,1014.58,77,0
"2016-09-10 06:00:49+00",5.6,6.6,,78.1,-244,-167,-50,1014.61,76.9,0
"2016-09-10 06:05:49+00",5.3,6.3,,78,-185,-194,-44,1014.62,76.9,0
"2016-09-10 06:10:49+00",5.1,6.1,,78,-227,-164,-43,1014.49,76.8,0
"2016-09-10 06:15:49+00",5.5,6.5,,78,-208,-196,-45,1014.43,76.8,0
"2016-09-10 06:20:49+00",5.6,6.6,,77.8,-180,-200,-51,1014.42,76.7,0
"2016-09-10 06:25:49+00",5.4,6.4,,77.9,-231,-193,-48,1014.4,76.6,0
"2016-09-10 06:30:49+00",6.6,7.6,,77.8,-183,-238,-42,1014.42,76.6,0
"2016-09-10 06:35:49+00",6.0,7.0,,77.9,-228,-217,-45,1014.41,76.6,0
"2016-09-10 06:40:49+00",6.2,7.2,,77.9,-210,-228,-47,1014.39,76.6,0
"2016-09-10 06:45:49+00",7.0,8.0,,77.9,-129,-257,-59,1014.44,76.6,0
"2016-09-10 06:50:49+00",7.3,9.3,,77.4,-76,-302,-22,1014.36,76.5,0
"2016-09-10 06:55:49+00",5.7,6.7,,76.8,-12,-200,-49,1014.24,76.3,0
"2016-09-10 07:00:49+00",7.1,8.1,,76.3,-84,-253,-62,1014.16,76.1,0
"2016-09-10 07:05:49+00",5.3,7.3,,76.1,-58,-189,-39,1014.19,75.8,0
"2016-09-10 07:10:49+00",6.8,8.8,,75.9,-43,-255,-67,1014.12,75.7,0
"2016-09-10 07:15:49+00",6.4,9.4,,75.7,-60,-238,-57,1014.16,75.6,0
"2016-09-10 07:20:49+00",5.3,7.3,,75.7,-58,-195,-43,1014.11,75.5,0
"2016-09-10 07:25:49+00",5.7,6.7,,75.6,-65,-208,-49,1014.19,75.4,0
"2016-09-10 07:30:49+00",5.1,6.1,,75.6,-70,-183,-47,1014.17,75.3,0
"2016-09-10 07:35:49+00",5.5,6.5,,75.6,-104,-193,-50,1014.13,75.2,0
"2016-09-10 07:40:49+00",5.9,6.9,,75.6,-138,-199,-55,1014.15,75.2,0
"2016-09-10 07:45:49+00",5.4,6.4,,75.6,-75,-192,-45,1014.09,75.1,0
"2016-09-10 07:50:49+00",5.8,6.8,,75.6,-107,-202,-46,1014.13,75.1,0
"2016-09-10 07:55:49+00",6.8,7.8,,75.7,-162,-233,-52,1014.13,75.1,0
"2016-09-10 08:00:49+00",7.3,8.3,,75.6,-134,-266,-62,1014.19,75.1,0
"2016-09-10 08:05:49+00",6.8,8.8,,75.6,-88,-249,-54,1014.15,75.1,0
"2016-09-10 08:10:49+00",7.0,9.0,,75.5,-78,-259,-66,1014.08,75.1,0
"2016-09-10 08:15:49+00",7.8,9.8,,75.4,-117,-283,-71,1014.19,75.1,0
"2016-09-10 08:20:49+00",7.9,8.9,,75.5,-141,-289,-63,1014.19,75.1,0
"2016-09-10 08:25:49+00",8.0,10.0,,75.6,-91,-296,-82,1014.18,75.1,0
"2016-09-10 08:30:49+00",6.4,8.4,,75.6,-95,-224,-67,1014.21,75.1,0
"2016-09-10 08:35:49+00",6.2,7.2,,75.6,-169,-226,-58,1014.18,75.1,0
"2016-09-10 08:40:49+00",5.6,6.6,,75.8,-217,-205,-53,1014.16,75.1,0
"2016-09-10 08:45:49+00",5.3,6.3,,75.9,-198,-183,-45,1014.09,75.2,0
"2016-09-10 08:50:49+00",6.2,7.2,,75.9,-111,-213,-47,1014.12,75.2,0
"2016-09-10 08:55:49+00",4.8,5.8,,75.9,-34,-176,-42,1014.23,75.2,0
"2016-09-10 09:00:49+00",4.5,5.5,,75.7,-39,-164,-37,1014.27,75.1,0
"2016-09-10 09:05:49+00",5.0,7.0,,75.6,-88,-170,-38,1014.22,75,0
"2016-09-10 09:10:49+00",4.9,5.9,,75.6,-109,-171,-38,1014.27,74.9,0
"2016-09-10 09:15:49+00",3.8,3.8,,75.7,-154,-115,-29,1014.35,74.9,0
"2016-09-10 09:20:49+00",5.0,6.0,,75.8,-201,-126,-37,1014.27,74.8,0
"2016-09-10 09:25:49+00",5.0,6.0,,75.9,-180,-176,-30,1014.24,74.9,0
"2016-09-10 09:30:49+00",4.8,5.8,,75.9,-170,-179,-34,1014.3,74.9,0
"2016-09-10 09:35:49+00",6.3,6.3,,76,-166,-236,-49,1014.24,74.8,0
"2016-09-10 09:40:49+00",6.6,6.6,,76.1,-149,-241,-52,1014.31,74.8,0
"2016-09-10 09:45:49+00",6.6,7.6,,76.1,-119,-263,-45,1014.31,74.9,0
"2016-09-10 09:50:49+00",4.5,5.5,,76,-64,-180,-36,1014.29,75,0
"2016-09-10 09:55:49+00",4.8,5.8,,75.8,-83,-191,-31,1014.33,74.9,0
"2016-09-10 10:00:49+00",4.9,4.9,,75.6,-66,-207,-26,1014.37,74.9,0
"2016-09-10 10:05:49+00",5.2,5.2,,75.6,-140,-202,-32,1014.38,74.7,0
"2016-09-10 10:10:49+00",6.0,7.0,,75.7,-149,-229,-39,1014.48,74.7,0
"2016-09-10 10:15:49+00",4.9,6.9,,75.5,-84,-194,-35,1014.55,74.7,0
"2016-09-10 10:20:49+00",6.2,7.2,,75.4,-87,-247,-26,1014.56,74.6,0
"2016-09-10 10:25:49+00",6.2,7.2,,75.3,-46,-252,-9,1014.59,74.7,0
"2016-09-10 10:30:49+00",6.9,7.9,,75.2,-24,-282,-8,1014.6,74.6,0
"2016-09-10 10:35:49+00",8.8,9.8,,75.1,25,-375,-5,1014.73,74.5,0
"2016-09-10 10:40:49+00",8.0,12.0,,75.1,-48,-323,-15,1014.84,74.7,0
"2016-09-10 10:45:49+00",9.5,12.5,,75.2,-157,-378,-17,1014.83,74.8,0
"2016-09-10 10:50:49+00",9.1,10.1,,75.3,-162,-354,1,1014.86,74.8,0
"2016-09-10 10:55:49+00",8.1,10.1,,75.4,-88,-321,-10,1014.9,74.9,0
"2016-09-10 11:00:49+00",8.2,9.2,,75.4,-157,-316,-1,1014.95,75,0
"2016-09-10 11:05:49+00",7.9,8.9,,75.5,-98,-315,5,1014.99,75.1,0
"2016-09-10 11:10:49+00",9.4,11.4,,75.5,-80,-386,-21,1015.01,75.1,0
"2016-09-10 11:15:49+00",8.9,11.9,,75.5,-114,-369,-5,1015.09,75.2,2.1
"2016-09-10 11:20:49+00",10.9,13.9,,75.6,-87,-447,-22,1015.08,75.4,7.7
"2016-09-10 11:25:49+00",11.2,14.2,,75.7,-98,-466,-16,1015.16,75.6,15.4
"2016-09-10 11:30:49+00",12.0,16.0,,75.8,-161,-500,-21,1015.08,75.7,17.4
"2016-09-10 11:35:49+00",10.1,12.1,,75.9,-177,-396,-4,1015.05,76,28.8
"2016-09-10 11:40:49+00",9.5,12.5,,76.1,-152,-389,-9,1015.08,76.3,42.8
"2016-09-10 11:45:49+00",11.1,13.1,,76.2,-153,-451,-10,1015.1,76.5,51.2
"2016-09-10 11:50:49+00",13.4,15.4,,76.3,-165,-547,-14,1015.2,76.7,61.2
"2016-09-10 11:55:49+00",11.5,14.5,,76.5,-177,-464,-12,1015.4,77,70.2
"2016-09-10 12:00:49+00",10.3,14.3,,76.6,-145,-424,7,1015.38,77.2,79.6
"2016-09-10 12:05:49+00",10.4,11.4,,76.7,-177,-413,3,1015.37,77.4,89.3
"2016-09-10 12:10:49+00",11.4,13.4,,76.7,-296,-423,5,1015.34,77.7,111.6
"2016-09-10 12:15:49+00",13.2,14.2,,76.9,-344,-487,-5,1015.48,78.1,127.2
"2016-09-10 12:20:49+00",11.3,13.3,,77.2,-320,-408,12,1015.41,78.5,137.4
"2016-09-10 12:25:49+00",12.9,14.9,,77.2,-294,-486,-7,1015.52,78.8,146.3
"2016-09-10 12:30:49+00",11.0,13.0,,77.7,-195,-432,22,1015.43,79.2,164.5
"2016-09-10 12:35:49+00",14.7,16.7,,78,-429,-520,5,1015.39,79.5,179.5
"2016-09-10 12:40:49+00",14.1,16.1,,78.2,-419,-482,8,1015.43,79.9,193.3
"2016-09-10 12:45:49+00",14.2,16.2,,78.3,-470,-409,7,1015.44,80.4,206.9
"2016-09-10 12:50:49+00",12.2,14.2,,78.7,-353,-434,21,1015.49,81,201.4
"2016-09-10 12:55:49+00",12.6,14.6,,78.9,-266,-477,-15,1015.61,81.1,224.3
"2016-09-10 13:00:49+00",13.5,16.5,,79,-371,-486,-12,1015.57,80.9,96.4
"2016-09-10 13:05:49+00",11.0,13.0,,79.2,-347,-338,1,1015.64,80.9,144.2
"2016-09-10 13:10:49+00",11.6,14.6,,79.1,-440,-283,3,1015.77,81.2,139.6
"2016-09-10 13:15:49+00",11.0,13.0,,79.3,-418,-271,12,1015.7,81.8,215.8
"2016-09-10 13:20:49+00",10.1,12.1,,79.6,-316,-328,17,1015.61,82.4,225.1
"2016-09-10 13:25:49+00",10.6,12.6,,79.6,-281,-388,34,1015.66,82.5,230.7
"2016-09-10 13:30:49+00",13.1,14.1,,79.9,-322,-490,3,1015.67,82.6,240.7
"2016-09-10 13:35:49+00",13.5,15.5,,80.1,-354,-495,2,1015.79,82.6,247
"2016-09-10 13:40:49+00",13.4,15.4,,80.4,-400,-451,14,1015.85,82.8,254.1
"2016-09-10 13:45:49+00",14.5,16.5,,80.4,-475,-430,16,1015.78,83.2,258.2
"2016-09-10 13:50:49+00",14.3,16.3,,80.5,-466,-439,18,1015.68,83.5,249.5
"2016-09-10 13:55:49+00",13.3,15.3,,80.5,-421,-438,12,1015.6,83.7,269.3
"2016-09-10 14:00:49+00",12.8,14.8,,80.5,-394,-411,2,1015.62,83.8,280.1
"2016-09-10 14:05:49+00",14.0,15.0,,80.3,-418,-482,0,1015.62,83.7,292.7
"2016-09-10 14:10:49+00",13.0,17.0,,80.3,-339,-489,29,1015.65,83.4,301.5
"2016-09-10 14:15:49+00",14.0,16.0,,80.3,-297,-542,-4,1015.76,83.2,323.6
"2016-09-10 14:20:49+00",12.2,14.2,,80.5,-286,-462,3,1015.73,83.2,335.7
"2016-09-10 14:25:49+00",12.9,14.9,,80.7,-333,-482,20,1015.77,83.5,355.2
"2016-09-10 14:30:49+00",13.7,16.7,,80.6,-310,-519,13,1015.75,83.7,378.3
"2016-09-10 14:35:49+00",12.8,14.8,,80.7,-321,-478,-2,1015.81,83.7,397.4
"2016-09-10 14:40:49+00",12.2,14.2,,81.2,-260,-474,-4,1015.79,84.4,390.6
"2016-09-10 14:45:49+00",12.4,16.4,,81,-208,-493,-11,1015.83,84.2,405.4
"2016-09-10 14:50:49+00",17.7,20.7,,80.6,-232,-721,-24,1015.87,83.3,427.7
"2016-09-10 14:55:49+00",13.9,18.9,,80.3,-155,-575,8,1015.83,82.7,437.9
"2016-09-10 15:00:49+00",16.6,19.6,,80.1,-311,-655,18,1015.9,82.7,409.9
"2016-09-10 15:05:49+00",17.1,20.1,,80.3,-225,-699,-24,1015.83,82.9,398.3
"2016-09-10 15:10:49+00",15.3,17.3,,80.8,-352,-580,19,1015.8,82.9,239.5
"2016-09-10 15:15:49+00",14.4,16.4,,80.2,-315,-555,6,1015.68,82.4,230.1
"2016-09-10 15:20:49+00",15.5,17.5,,79.8,-374,-581,0,1015.7,82,230.1
"2016-09-10 15:25:49+00",18.1,20.1,,79.8,-286,-724,-20,1015.65,81.8,263.5
"2016-09-10 15:30:49+00",17.2,18.2,,79.9,-267,-693,-29,1015.67,81.6,246.7
"2016-09-10 15:35:49+00",17.4,19.4,,79.7,-337,-675,-17,1015.74,81.5,261.9
"2016-09-10 15:40:49+00",16.7,20.7,,79.8,-241,-677,-18,1015.72,81.6,229.6
"2016-09-10 15:45:49+00",15.6,19.6,,79.7,-317,-613,8,1015.79,81.5,357.3
"2016-09-10 15:50:49+00",14.7,17.7,,79.5,-233,-591,3,1015.72,81.3,239
"2016-09-10 15:55:49+00",12.8,15.8,,79.6,-179,-518,7,1015.76,81.4,250.5
"2016-09-10 16:00:49+00",15.3,20.3,,79.3,-337,-592,17,1015.77,81.2,213.7
"2016-09-10 16:05:49+00",16.9,19.9,,79.1,-357,-646,-20,1015.71,81,214.4
"2016-09-10 16:10:49+00",15.4,17.4,,79.1,-365,-582,-7,1015.61,81.1,219.3
"2016-09-10 16:15:49+00",16.5,18.5,,79.3,-352,-624,-15,1015.59,81.1,250.6
"2016-09-10 16:20:49+00",13.3,15.3,,79.8,-330,-496,5,1015.6,81.8,264.2
"2016-09-10 16:25:49+00",13.4,17.4,,79.7,-306,-506,-4,1015.66,81.7,245.6
"2016-09-10 16:30:49+00",16.1,18.1,,79.7,-331,-610,-27,1015.57,81.7,265.9
"2016-09-10 16:35:49+00",13.9,15.9,,80.2,-388,-500,24,1015.47,82.1,234.2
"2016-09-10 16:40:49+00",17.5,18.5,,80.2,-439,-655,-5,1015.41,82.3,428.1
"2016-09-10 16:45:49+00",16.5,19.5,,80.9,-297,-643,-12,1015.36,83.8,622.2
"2016-09-10 16:50:49+00",13.4,16.4,,81.5,-297,-519,32,1015.18,84.6,555.5
"2016-09-10 16:55:49+00",16.7,18.7,,81.2,-346,-639,-9,1015.15,84.3,255.4
"2016-09-10 17:00:49+00",14.4,17.4,,81.4,-218,-582,3,1015.2,84.1,371.5
"2016-09-10 17:05:49+00",16.1,20.1,,81.4,-196,-669,11,1015.21,83.9,409.9
"2016-09-10 17:10:49+00",16.9,19.9,,81.1,-184,-693,-18,1015.16,83.9,524
"2016-09-10 17:15:49+00",15.9,20.9,,81.4,-232,-646,1,1015.08,84.3,573.5
"2016-09-10 17:20:49+00",18.0,21.0,,81.2,-402,-692,9,1015.03,84.4,341.3
"2016-09-10 17:25:49+00",16.5,19.5,,81.2,-268,-667,18,1015.04,84.1,592.2
"2016-09-10 17:30:49+00",16.6,19.6,,81,-430,-608,-6,1015.06,84.2,376.3
"2016-09-10 17:35:49+00",18.3,19.3,,80.5,-438,-683,-17,1015.03,83.4,228.9
"2016-09-10 17:40:49+00",16.4,18.4,,80.7,-430,-605,-9,1015.08,83,188.6
"2016-09-10 17:45:49+00",14.2,16.2,,80.8,-341,-543,18,1015.03,82.7,170.7
"2016-09-10 17:50:49+00",12.9,16.9,,81.1,-189,-543,28,1015.03,82.5,175.1
"2016-09-10 17:55:49+00",15.6,18.6,,81,-148,-646,-22,1014.97,82.5,176.3
"2016-09-10 18:00:49+00",14.7,19.7,,80,-146,-615,2,1014.89,81.5,166.7
"2016-09-10 18:05:49+00",16.0,22.0,,79.2,-180,-650,10,1014.81,80.7,166.7
"2016-09-10 18:10:49+00",17.6,20.6,,79.1,-261,-719,-15,1014.86,80.6,168.4
"2016-09-10 18:15:49+00",15.1,20.1,,79.4,-245,-608,-6,1014.92,80.8,175.3
"2016-09-10 18:20:49+00",17.5,20.5,,79.2,-288,-699,-13,1014.78,80.7,178.1
"2016-09-10 18:25:49+00",15.5,18.5,,79.4,-257,-609,-19,1014.73,80.8,192
"2016-09-10 18:30:49+00",18.5,21.5,,79.6,-345,-731,-3,1014.7,81.1,374.4
"2016-09-10 18:35:49+00",16.4,21.4,,79.7,-244,-662,24,1014.7,81.7,330.5
"2016-09-10 18:40:49+00",19.7,22.7,,79.2,-331,-783,-15,1014.61,81.2,202.7
"2016-09-10 18:45:49+00",20.8,23.8,,79,-358,-822,-17,1014.62,80.8,208.8
"2016-09-10 18:50:49+00",19.4,22.4,,79.4,-334,-763,-18,1014.59,81.1,218.9
"2016-09-10 18:55:49+00",19.6,22.6,,79.8,-297,-776,-16,1014.54,81.4,200.4
"2016-09-10 19:00:49+00",16.6,19.6,,80.2,-293,-656,-20,1014.49,81.7,256.4
"2016-09-10 19:05:49+00",15.8,20.8,,80.6,-250,-630,6,1014.47,82.4,370.1
"2016-09-10 19:10:49+00",14.8,18.8,,80.6,-189,-610,23,1014.48,82.7,333.9
"2016-09-10 19:15:49+00",14.8,18.8,,80.3,-183,-606,2,1014.44,82.3,427.2
"2016-09-10 19:20:49+00",16.4,21.4,,79.9,-262,-665,0,1014.43,82.1,225.4
"2016-09-10 19:25:49+00",18.9,20.9,,79.2,-401,-727,-9,1014.46,81.2,217.7
"2016-09-10 19:30:49+00",16.6,19.6,,79.3,-369,-638,23,1014.39,81.2,181.4
"2016-09-10 19:35:49+00",18.5,20.5,,79.3,-388,-709,-7,1014.55,81.1,228
"2016-09-10 19:40:49+00",17.6,20.6,,79.1,-363,-681,11,1014.57,81,191.7
"2016-09-10 19:45:49+00",17.8,21.8,,79.1,-275,-715,-13,1014.55,81,395.8
"2016-09-10 19:50:49+00",19.2,24.2,,79,-284,-769,-13,1014.49,80.9,176.3
"2016-09-10 19:55:49+00",18.2,20.2,,78.8,-343,-719,11,1014.51,80.3,149.8
"2016-09-10 20:00:49+00",17.5,20.5,,79,-313,-693,0,1014.48,80.3,154.3
"2016-09-10 20:05:49+00",17.1,19.1,,79.2,-324,-677,3,1014.42,80.3,115.1
"2016-09-10 20:10:49+00",14.5,18.5,,79.1,-256,-591,19,1014.62,80.1,113.6
"2016-09-10 20:15:49+00",18.7,21.7,,79,-382,-718,-3,1014.58,80.2,162.1
"2016-09-10 20:20:49+00",17.2,20.2,,79,-384,-653,-8,1014.53,80.2,146.8
"2016-09-10 20:25:49+00",17.2,20.2,,79.3,-340,-667,-6,1014.53,80.3,129.8
"2016-09-10 20:30:49+00",14.8,16.8,,79.2,-255,-581,-2,1014.53,80.4,126.9
"2016-09-10 20:35:49+00",14.7,18.7,,79.4,-258,-587,19,1014.57,80.7,248.8
"2016-09-10 20:40:49+00",15.0,18.0,,79.6,-302,-579,-10,1014.42,81.3,231.8
"2016-09-10 20:45:49+00",13.3,17.3,,79.7,-282,-517,8,1014.46,81.4,151.5
"2016-09-10 20:50:49+00",13.0,17.0,,79.6,-188,-526,6,1014.4,81,82.7
"2016-09-10 20:55:49+00",14.3,18.3,,79.4,-190,-587,6,1014.36,80.6,75.4
"2016-09-10 21:00:49+00",19.1,23.1,,78.7,-283,-773,-1,1014.46,79.9,74.4
"2016-09-10 21:05:49+00",19.5,23.5,,78.4,-314,-779,-11,1014.37,79.4,115.9
"2016-09-10 21:10:49+00",20.3,22.3,,78.3,-336,-803,-24,1014.4,79.4,118.4
"2016-09-10 21:15:49+00",19.1,23.1,,78.2,-428,-734,-2,1014.22,79.3,100.6
"2016-09-10 21:20:49+00",19.7,23.7,,78.3,-354,-782,-3,1014.1,79.3,111.8
"2016-09-10 21:25:49+00",19.9,23.9,,78.5,-373,-781,-1,1014.05,79.7,177.8
"2016-09-10 21:30:49+00",21.6,24.6,,78.3,-421,-831,-9,1013.92,79.5,78.4
"2016-09-10 21:35:49+00",21.2,26.2,,78.4,-377,-837,-25,1013.98,79.5,165.6
"2016-09-10 21:40:49+00",21.5,24.5,,78.3,-434,-836,-17,1014.02,79.4,101.8
"2016-09-10 21:45:49+00",18.4,20.4,,78.1,-302,-727,-13,1014.09,79,42.7
"2016-09-10 21:50:49+00",19.1,23.1,,78,-305,-767,-22,1014.1,78.7,43.7
"2016-09-10 21:55:49+00",19.1,23.1,,77.6,-320,-762,5,1014.05,78.3,40.1
"2016-09-10 22:00:49+00",16.0,22.0,,77.5,-205,-647,23,1014.03,78.1,32.3
"2016-09-10 22:05:49+00",19.2,22.2,,77.3,-334,-759,-12,1013.95,78,39.1
"2016-09-10 22:10:49+00",19.0,22.0,,77.1,-298,-767,-3,1013.92,77.7,7.8
"2016-09-10 22:15:49+00",20.1,26.1,,77,-289,-821,-16,1014.01,77.5,0.9
"2016-09-10 22:20:49+00",18.7,22.7,,76.9,-270,-772,-3,1013.85,77.2,0
"2016-09-10 22:25:49+00",20.4,26.4,,76.8,-290,-825,-15,1013.81,77.1,0
"2016-09-10 22:30:49+00",19.3,25.3,,76.8,-333,-778,-2,1013.83,77,0
"2016-09-10 22:35:49+00",20.2,25.2,,76.8,-348,-803,-14,1013.72,76.9,0
"2016-09-10 22:40:49+00",19.6,23.6,,76.7,-320,-783,-8,1013.81,76.9,0
"2016-09-10 22:45:49+00",18.1,24.1,,76.7,-277,-728,-7,1013.85,76.7,0
"2016-09-10 22:50:49+00",20.4,24.4,,76.6,-318,-822,-12,1013.8,76.6,0
"2016-09-10 22:55:49+00",16.5,22.5,,76.6,-311,-666,21,1013.82,76.5,0
"2016-09-10 23:00:49+00",21.4,24.4,,76.6,-392,-853,-7,1013.68,76.5,0
"2016-09-10 23:05:49+00",17.9,20.9,,76.6,-331,-709,8,1013.54,76.5,0
"2016-09-10 23:10:49+00",19.8,24.8,,76.6,-346,-797,1,1013.5,76.5,0
"2016-09-10 23:15:49+00",21.8,26.8,,76.5,-382,-861,-20,1013.47,76.4,0
"2016-09-10 23:20:49+00",19.8,23.8,,76.5,-372,-776,-2,1013.51,76.3,0
"2016-09-10 23:25:49+00",21.0,26.0,,76.6,-369,-832,-9,1013.47,76.3,0
"2016-09-10 23:30:49+00",20.5,25.5,,76.6,-352,-813,-13,1013.38,76.3,0
"2016-09-10 23:35:49+00",22.0,26.0,,76.5,-392,-871,-8,1013.33,76.3,0
"2016-09-10 23:40:49+00",16.9,20.9,,76.5,-323,-671,16,1013.3,76.3,0
"2016-09-10 23:45:49+00",23.6,29.6,,76.5,-406,-936,-8,1013.37,76.3,0
"2016-09-10 23:50:49+00",20.6,23.6,,76.5,-433,-799,19,1013.37,76.2,0
"2016-09-10 23:55:49+00",22.9,26.9,,76.5,-450,-887,-12,1013.31,76.3,0
